{"data":{"norad_id":54104,"epoch":"2026-09-20T21:40:24.364128Z","epoch_age_seconds":54465,"freshness":"FRESH","line1":"1 54104U 22136BF  26263.90305977  .00000518  00000+0  28477-4 0  9992","line2":"2 54104  53.1592 128.2264 0001386  84.2374 275.8786 15.31697761217146","mean_motion":15.31697761,"eccentricity":0.0001386,"inclination_deg":53.1592,"raan_deg":128.2264,"arg_perigee_deg":84.2374,"mean_anomaly_deg":275.8786,"bstar":2.8477e-5,"rev_number":21714,"period_min":94.013325387371,"perigee_km":469.79741429967,"apogee_km":471.69592485287,"semimajor_km":6848.8836695763,"source":"CELESTRAK","updated_at":"2026-09-21T09:00:33.086533Z"}}